Other Public Products
Issued by NWS Grand Forks, ND

Home | Current Version | Previous Version | Graphics & Text | Print | Product List | Glossary On
Versions: 1 2 3 4 5 6 7 8 9 10 11 12 13 14 15 16 17 18 19 20 21 22 23 24 25 26 27 28 29 30 31 32 33 34 35 36 37 38 39 40 41 42 43 44 45 46 47 48 49 50
000
FPUS83 KFGF 270910
OPUFGF
PRAIRIE TO PINES WEATHER ROUNDUP
NATIONAL WEATHER SERVICE EASTERN NORTH DAKOTA/GRAND FORKS ND
400 AM CDT WED AUG 27 2014

 **SATELLITE DATA USED TO AUGMENT SKY COVER AT AUTOMATED STATIONS**
 *****  WEATHER ACROSS EASTERN NORTH DAKOTA  *****

CITY           SKY/WX    TMP DP  RH WIND       PRES   REMARKS
GRAND FORKS    CLEAR     49  48  97 S3        30.16S
GRAND FORKS AF CLEAR     52  51  99 W2        30.17R
GRAND CITY NWS   N/A     50 N/A N/A SW5         N/A
BUXTON         NOT AVBL
DEVILS LAKE    CLEAR     57  48  72 SW7       30.15S
FARGO          FOG       51  51 100 S3        30.18S VSB 1/4
WAHPETON ARPT  CLOUDY    59  55  88 CALM      30.19S
$$

 *****  WEATHER ACROSS CENTRAL AND WESTERN NORTH DAKOTA  *****

CITY           SKY/WX    TMP DP  RH WIND       PRES   REMARKS
JAMESTOWN      FOG       49  48  97 CALM      30.18F VSB 1/4
BISMARCK       FOG       48  48 100 SE3       30.18S VSB 1/4
MINOT          CLEAR     55  51  86 S8        30.14S
MINOT AFB      CLEAR     52  51  99 SW6       30.13S
GARRISON         N/A     50  50 100 S3        30.15F
WILLISTON      CLEAR     55  52  89 S3        30.12S
DICKINSON      CLEAR     49  47  93 S7        30.15S
HETTINGER      MOCLDY    45  44  97 NE3       30.16F FOG
$$

 *****  OTHER OBSERVATIONS NORTHEAST NORTH DAKOTA  *****

CITY           SKY/WX    TMP DP  RH WIND       PRES   REMARKS
WALHALLA       FAIR      45  45 100 CALM      30.15S
LANGDON        FAIR      43  41  93 SW3       30.16S
CAVALIER       FAIR      46  45  93 CALM      30.15S
GRAFTON        FAIR      48  48 100 W5        30.16S
CANDO          FAIR      46  46 100 SW3       30.16F
FORT TOTTEN    NOT AVBL
ROLLA          FAIR      48  48 100 SW7       30.16F
RUGBY          FAIR      50  50 100 S3        30.15F
 ***** THE ABOVE OBSERVATIONS ARE NON NWS ARE NOT QUALITY
        CONTROLLED AND MAY MIS-REPORT RAIN FOR SNOW...
$$

 *****  OTHER OBSERVATIONS SOUTHEAST NORTH DAKOTA *****

CITY           SKY/WX    TMP DP  RH WIND       PRES   REMARKS
COOPERSTOWN    NOT AVBL
VALLEY CITY    FOG       48  48 100 S3        30.19S VSB<1/4
OAKES            N/A     57  57 100 NE3       30.18S
GWINNER        CLOUDY    57  57 100 E3        30.20S
SHEYENNE NWR     N/A     58  57  97 CALM      29.95S
BUFFALO        NOT AVBL
WYNDMERE       NOT AVBL
 ***** THE ABOVE OBSERVATIONS ARE NON NWS ARE NOT QUALITY
       CONTROLLED AND MAY MIS-REPORT RAIN FOR SNOW...
$$

  *****  WEATHER ACROSS NORTHERN MINNESOTA  *****

CITY           SKY/WX    TMP DP  RH WIND       PRES   REMARKS
FLAG ISLAND    CLOUDY    55  50  82 SW9       30.15S
WARROAD        CLEAR     46  43  87 CALM      30.18S
ROSEAU         CLEAR     46  41  81 SE3       30.17S
HALLOCK        CLEAR     46  45  93 S7        30.15S
THF RVR FALLS  CLEAR     48  48 100 S5        30.18S
HALSTAD          N/A     48  46  93 SW2         N/A
FOSSTON        CLEAR     45  43  93 CALM      30.20S FOG
BAUDETTE       PTCLDY    45  43  93 CALM      30.18F
WASKISH        MOCLDY    46  46 100 CALM      30.19S
CROOKSTON      FOG       52  52 100 S3        30.18S VSB 1/4
$$
  *****  WEATHER ACROSS CENTRAL AND WEST MINNESOTA  *****

CITY           SKY/WX    TMP DP  RH WIND       PRES   REMARKS
BEMIDJI        FOG       45  45  99 CALM      30.19S VSB 1/2
PARK RAPIDS    PTCLDY    55  54  96 CALM      30.19F
WADENA         CLOUDY    55  55 100 CALM      30.20S
DETROIT LAKES  CLEAR     55  54  94 W3        30.20S
MOORHEAD       MOCLDY    57  57 100 CALM      30.19F FOG
FERGUS FALLS   CLOUDY    59  57  94 CALM      30.20S
ELBOW LAKE     CLOUDY    58  56  94 CALM      30.19S
MORRIS MN      CLOUDY    57  57 100 CALM      30.19S
STAPLES        CLOUDY    55  55 100 CALM      30.20S
WHEATON        MOCLDY    55  54  94 CALM      30.21S
$$
  *****  WEATHER ELSEWHERE ACROSS MINNESOTA  *****

CITY           SKY/WX    TMP DP  RH WIND       PRES   REMARKS
DULUTH         MOCLDY    53  49  86 NW6       30.19S
INTRNTL FALLS  PTCLDY    36  35  96 CALM      30.19S
ELY            PTCLDY    46  45  93 CALM      30.19S
CLOQUET        CLOUDY    52  50  93 W3        30.20S
BRAINERD       CLOUDY    56  55  97 CALM      30.21S
HIBBING        MOCLDY    43  42  97 CALM      30.20S FOG
ALEXANDRIA     CLOUDY    58  56  93 CALM      30.21R
SAINT CLOUD    CLOUDY    60  55  83 NE3       30.19S
MINNEAPOLIS    MOCLDY    62  57  83 NE7       30.18F
$$

  *****  WEATHER ACROSS SOUTH DAKOTA  *****

CITY           SKY/WX    TMP DP  RH WIND       PRES   REMARKS
SIOUX FALLS    PTCLDY    59  57  93 E7        30.16F
BROOKINGS      NOT AVBL
WATERTOWN      PTCLDY    55  53  93 E6        30.18S
HURON          MOCLDY    59  57  93 E3        30.15R
SISSETON         N/A     56  55  97 E3        30.18S
ABERDEEN       CLOUDY    58  56  93 E5        30.16F
MITCHELL       PTCLDY    58  57  97 E6        30.14F
PIERRE         CLOUDY    59  55  87 E9        30.11S
MOBRIDGE       CLEAR     53  52  96 E8        30.14S
RAPID CITY     CLOUDY    56  53  90 E5        30.16S
$$

  *****  SOME WEATHER IN NEARBY STATES *****

CITY           SKY/WX    TMP DP  RH WIND       PRES   REMARKS
GLASGOW MT     CLEAR     53  50  89 E12       30.05F
GREAT FALLS MT CLEAR     53  44  71 S10       30.07S
CHEYENNE WY    CLOUDY    54  50  86 W7        30.22F
SCOTTSBLUFF NE PTCLDY    63  62  97 E7        30.14S
OMAHA NE       MOCLDY    70  64  81 VRB3      30.12R
DES MOINES IA  PTCLDY    69  62  78 NE6       30.12S
DAVENPORT IA   MOCLDY    68  64  87 NE6       30.13F
CHICAGO IL     CLOUDY    69  63  81 N6        30.11S
EAU CLAIRE WI  CLOUDY    60  58  92 N3        30.18S
LA CROSSE WI   PTCLDY    62  58  86 CALM      30.16F
$$

  *****  SOME NATIONAL WEATHER *****

CITY           SKY/WX    TMP DP  RH WIND       PRES   REMARKS
LA GUARDIA NY  CLEAR     73  63  70 W5        30.02F
RALEIGH NC     PTCLDY    59  57  93 CALM      30.07R
ATLANTA GA     CLEAR     68  59  73 E5        30.08S
NEW ORLEANS LA PTCLDY    81  74  79 E3        29.96S
OKLAHOMA CITY  PTCLDY    73  67  81 SE7       30.07S
ALBUQUERQUE NM CLOUDY    62  58  86 E7        30.26F
SALT LAKE CITY MOCLDY    60  54  80 SE6       30.16F
LOS ANGELES CA CLEAR     69  62  78 CALM      29.99S
BOISE ID       CLEAR     65  47  52 SE8       30.07S
SEATTLE WA     CLEAR     71  55  56 NE10      30.01S
$$

*** WEATHER ACROSS MANITOBA...SASKATCHEWAN AND ONTARIO ***
                ***ONTARIO***

CITY           SKY/WX    TMP DP  RH WIND       PRES   REMARKS
GERALDTON      CLOUDY    52  48  87 W3        30.09R
THUNDER BAY    CLOUDY    55  52  88 W3        30.14S
SIOUX LOOKOUT  NOT AVBL
TORONTO        PTCLDY    68  54  60 N13       30.03S
BIG TROUT LK   CLOUDY    46  46 100 N5        30.08S
PICKLE LAKE    NOT AVBL
DRYDEN         CLEAR     46  46 100 SW6       30.15S
KENORA         PTCLDY    50  46  87 W6        30.17S
$$
                *** MANITOBA***

CITY           SKY/WX    TMP DP  RH WIND       PRES   REMARKS
BRANDON        CLEAR     45  43  93 NW5       30.13S
DAUPHIN        CLEAR     55  48  76 SW10      30.06S
ISLAND LAKE    PTCLDY    48  46  93 CALM      30.08F
PILOT MOUND      N/A     43  41  93 S5          N/A
THE PAS        MOCLDY    55  50  82 S9        29.90F
THOMPSON       MOCLDY    48  48 100 S6        29.94F
WINNIPEG       CLEAR     48  46  93 S9        30.15S
LYNN LAKE      MOCLDY    54  46  76 MISG      29.79F
CHURCHILL      PTCLDY    48  43  81 S13G20    29.90F
GILLAM         CLEAR     41  41 100 S8        30.02F
$$
                ***SASKATCHEWAN***

CITY           SKY/WX    TMP DP  RH WIND       PRES   REMARKS
ESTEVAN        PTCLDY    50  48  93 S5        30.10F
KINDERSLEY     CLEAR     54  48  82 S10       29.93S
LLOYDMINSTER   CLEAR     57  48  72 SW12      29.87S
PRINCE ALBERT  NOT AVBL
REGINA         CLEAR     50  48  93 SE8       30.04S


USA.gov is the U.S. government's official web portal to all federal, state and local government web resources and services.